Cape Sakura — 7JHZ — position and weather

sailwx.info

Track history (hours):
 
Tides and Currents Weather Stations Pressure Air Temp Water Temp Dewpoint Dewpoint Depression Visibility Wind Speed Wind Dir Waves Ship Positions

Cape Sakura

Last reported at 2017-Jan-27 17:31 UTC. Time now 2017-Feb-23 18:38 UTC.
Position N 48°57' W 005°35'.
Warning: this ship's position is 27 days out of date.

Length 292 m; draft 11.1 m.

Type: Cargo ship. MMSI: 432786000.

Date/timePositionNaut miles runAvg speedWind from/ knotsBaromVisibWave heightAir tempDewpointWater temp
2017-Jan-27 17:31N 48°57' W 005°35'7510.6
2017-Jan-27 10:26N 49°42' W 004°03'1110.9
2017-Jan-27 09:28N 49°47' W 003°48'910.3
2017-Jan-27 08:33N 49°50' W 003°34'9 9.5
2017-Jan-27 07:34N 49°53' W 003°20'9 8.6
2017-Jan-27 06:28N 49°56' W 003°07'8 8.7
2017-Jan-27 05:34N 49°58' W 002°55'9 9.3
2017-Jan-27 04:34N 50°02' W 002°41'1110.7
2017-Jan-27 03:33N 50°05' W 002°25'1512.5
2017-Jan-27 02:20N 50°10' W 002°03'1113.7
2017-Jan-27 01:33N 50°12' W 001°47'1413.8
2017-Jan-27 00:33N 50°15' W 001°26'1413.1
2017-Jan-26 23:31N 50°17' W 001°05'1111.5
2017-Jan-26 22:33N 50°21' W 000°48'1010.2
2017-Jan-26 21:31N 50°23' W 000°32'9 9.6
2017-Jan-26 20:33N 50°26' W 000°18'9 9.5
2017-Jan-26 19:33N 50°29' W 000°04'10 9.9
2017-Jan-26 18:33N 50°31' E 000°11'1110.8
2017-Jan-26 17:33N 50°35' E 000°27'1211.9
2017-Jan-26 16:33N 50°40' E 000°44'1212.1
2017-Jan-26 15:34N 50°47' E 000°60'1211.6
2017-Jan-26 14:33N 50°55' E 001°12'1110.6
2017-Jan-26 13:34N 51°03' E 001°24'9 9.0
2017-Jan-26 12:34N 51°08' E 001°35'8 8.5
2017-Jan-26 11:34N 51°14' E 001°45'9 9.1
2017-Jan-26 10:33N 51°22' E 001°53'1010.5
2017-Jan-26 09:34N 51°30' E 002°02'1211.7
2017-Jan-26 08:33N 51°39' E 002°14'1212.3
2017-Jan-26 07:33N 51°49' E 002°27'1212.2
2017-Jan-26 06:33N 51°57' E 002°41'1211.8
2017-Jan-26 05:33N 52°03' E 002°58'1211.6
2017-Jan-26 04:33N 52°03' E 003°17'1111.2
2017-Jan-26 03:34N 52°03' E 003°35'7 6.8
2017-Jan-26 02:33N 52°04' E 003°46'7 6.7
2017-Jan-26 01:34N 52°02' E 003°56'7 7.2
2017-Jan-26 00:32N 51°58' E 004°07'0 0.0
2017-Jan-25 23:31N 51°58' E 004°07'0 0.0
2017-Jan-25 22:32N 51°58' E 004°07'0 0.0
2017-Jan-25 21:32N 51°58' E 004°07'0 0.0
2017-Jan-25 20:31N 51°58' E 004°07'0 0.0
2017-Jan-25 19:32N 51°58' E 004°07'0 0.0
2017-Jan-25 18:32N 51°58' E 004°07'0 0.0
2017-Jan-25 17:31N 51°58' E 004°07'0 0.0
2017-Jan-25 16:31N 51°58' E 004°07'0 0.0
2017-Jan-25 15:31N 51°58' E 004°07'0 0.0
2017-Jan-25 14:31N 51°58' E 004°07'0 0.0
2017-Jan-25 13:31N 51°58' E 004°07'0 0.0
2017-Jan-25 12:31N 51°58' E 004°07'0 0.0
2017-Jan-25 11:32N 51°58' E 004°07'0 0.0
2017-Jan-25 10:32N 51°58' E 004°07'0 0.0
2017-Jan-25 09:31N 51°58' E 004°07'0 0.0
2017-Jan-25 08:31N 51°58' E 004°07'0 0.0
2017-Jan-25 07:31N 51°58' E 004°07'0 0.0
2017-Jan-25 06:31N 51°58' E 004°07'0 0.0
2017-Jan-25 05:31N 51°58' E 004°07'0 0.0
2017-Jan-25 04:31N 51°58' E 004°07'0 0.0
2017-Jan-25 03:31N 51°58' E 004°07'0 0.0
2017-Jan-25 02:31N 51°58' E 004°07'0 0.0
2017-Jan-25 01:31N 51°58' E 004°07'0 0.0
2017-Jan-25 00:32N 51°58' E 004°07'0 0.0
2017-Jan-24 23:32N 51°58' E 004°07'0 0.0
2017-Jan-24 22:32N 51°58' E 004°07'0 0.0
2017-Jan-24 21:32N 51°58' E 004°07'0 0.0
2017-Jan-24 20:32N 51°58' E 004°07'0 0.0
2017-Jan-24 19:31N 51°58' E 004°07'0 0.0
2017-Jan-24 18:31N 51°58' E 004°07'0 0.0
2017-Jan-24 17:31N 51°58' E 004°07'0 0.0
2017-Jan-24 16:32N 51°58' E 004°07'0 0.0
2017-Jan-24 15:32N 51°58' E 004°07'0 0.0
2017-Jan-24 14:31N 51°58' E 004°07'0 0.0
2017-Jan-24 13:32N 51°58' E 004°07'0 0.0
2017-Jan-24 12:31N 51°58' E 004°07'0 0.0
2017-Jan-24 11:32N 51°58' E 004°07'0 0.0
2017-Jan-24 10:31N 51°58' E 004°07'0 0.0
2017-Jan-24 09:32N 51°58' E 004°07'0 0.0
2017-Jan-24 08:31N 51°58' E 004°07'0 0.0
2017-Jan-24 07:31N 51°58' E 004°07'0 0.0
2017-Jan-24 06:31N 51°58' E 004°07'0 0.0
2017-Jan-24 05:31N 51°58' E 004°07'0 0.0
2017-Jan-24 04:31N 51°58' E 004°07'0 0.0
2017-Jan-24 03:31N 51°58' E 004°07'0 0.0
2017-Jan-24 02:31N 51°58' E 004°07'0 0.0
2017-Jan-24 01:31N 51°58' E 004°07'0 0.0
2017-Jan-24 00:32N 51°58' E 004°07'0 0.0
2017-Jan-23 23:31N 51°58' E 004°07'0 0.0
2017-Jan-23 22:31N 51°58' E 004°07'0 0.0
2017-Jan-23 21:32N 51°58' E 004°07'0 0.0
2017-Jan-23 20:32N 51°58' E 004°07'0 0.0
2017-Jan-23 19:32N 51°58' E 004°07'0 0.0
2017-Jan-23 18:32N 51°58' E 004°07'0 0.0
2017-Jan-23 17:31N 51°58' E 004°07'0 0.0
2017-Jan-23 16:32N 51°58' E 004°07'0 0.0
2017-Jan-23 15:31N 51°58' E 004°07'0 0.0
2017-Jan-23 14:31N 51°58' E 004°07'0 0.0
2017-Jan-23 13:31N 51°58' E 004°07'0 0.0
2017-Jan-23 12:31N 51°58' E 004°07'0 0.0
2017-Jan-23 11:31N 51°58' E 004°07'0 0.0
2017-Jan-23 10:31N 51°58' E 004°07'0 0.0
2017-Jan-23 09:31N 51°58' E 004°07'0 0.0
2017-Jan-23 08:31N 51°58' E 004°07'0 0.0
2017-Jan-23 07:31N 51°58' E 004°07'0 0.0
2017-Jan-23 06:31N 51°58' E 004°07'0 0.0
2017-Jan-23 05:31N 51°58' E 004°07'0 0.0
2017-Jan-23 04:31N 51°58' E 004°07'0 0.0
2017-Jan-23 03:31N 51°58' E 004°07'0 0.0
2017-Jan-23 02:31N 51°58' E 004°07'0 0.0
2017-Jan-23 01:31N 51°58' E 004°07'0 0.0
2017-Jan-23 00:31N 51°58' E 004°07'0 0.0
2017-Jan-22 23:31N 51°58' E 004°07'0 0.0
2017-Jan-22 22:32N 51°58' E 004°07'0 0.0
2017-Jan-22 21:31N 51°58' E 004°07'0 0.0
2017-Jan-22 20:32N 51°58' E 004°07'0 0.0
2017-Jan-22 19:31N 51°58' E 004°07'0 0.0
2017-Jan-22 18:31N 51°58' E 004°07'0 0.0
2017-Jan-22 17:31N 51°58' E 004°07'0 0.0
2017-Jan-22 16:32N 51°58' E 004°07'0 0.0
2017-Jan-22 15:31N 51°58' E 004°07'0 0.0
2017-Jan-22 14:31N 51°58' E 004°07'0 0.0
2017-Jan-22 13:31N 51°58' E 004°07'0 0.0
2017-Jan-22 12:31N 51°58' E 004°07'0 0.0
2017-Jan-22 11:31N 51°58' E 004°07'0 0.0
2017-Jan-22 10:32N 51°58' E 004°07'0 0.0
2017-Jan-22 09:32N 51°58' E 004°07'0 0.0
2017-Jan-22 08:33N 51°58' E 004°07'1 1.4
2017-Jan-22 07:33N 51°59' E 004°05'7 7.1
2017-Jan-22 06:33N 52°01' E 003°54'9 9.5
2017-Jan-22 05:33N 52°01' E 003°39'8 8.3
2017-Jan-22 04:32N 51°59' E 003°25'8 8.0
2017-Jan-22 03:32N 51°58' E 003°12'8 7.7
2017-Jan-22 02:33N 51°58' E 003°00'5 5.0
2017-Jan-22 01:31N 51°54' E 002°55'0 0.0
2017-Jan-21 13:09N 51°54' E 002°55'0 0.1
2017-Jan-21 11:32N 51°54' E 002°55'0 0.0
2017-Jan-21 03:29N 51°54' E 002°55'0 0.0
2017-Jan-21 02:33N 51°54' E 002°55'0 0.0
2017-Jan-21 01:30N 51°54' E 002°55'0 0.1
2017-Jan-21 00:23N 51°54' E 002°55'0 0.1
2017-Jan-20 23:27N 51°54' E 002°55'0 0.1
2017-Jan-20 22:33N 51°54' E 002°55'0 0.1
2017-Jan-20 21:29N 51°54' E 002°55'0 0.1
2017-Jan-20 20:29N 51°54' E 002°55'0 0.1
2017-Jan-20 19:33N 51°54' E 002°55'0 0.3
2017-Jan-20 18:32N 51°54' E 002°55'0 0.1
2017-Jan-20 15:33N 51°54' E 002°55'0 0.0
2017-Jan-20 14:30N 51°54' E 002°55'0 0.0
2017-Jan-20 13:33N 51°54' E 002°55'0 0.0
2017-Jan-20 12:33N 51°54' E 002°55'0 0.1
2017-Jan-20 11:33N 51°54' E 002°55'0 0.2
2017-Jan-20 10:32N 51°54' E 002°55'0 0.1
2017-Jan-20 09:32N 51°54' E 002°55'0 0.1
2017-Jan-20 08:32N 51°54' E 002°55'0 0.0
2017-Jan-20 07:26N 51°54' E 002°55'0 0.0
2017-Jan-20 06:23N 51°54' E 002°55'0 0.1
2017-Jan-20 03:27N 51°54' E 002°55'0 0.0
2017-Jan-20 02:21N 51°54' E 002°55'0 0.0
2017-Jan-20 01:27N 51°54' E 002°55'0 0.0
2017-Jan-20 00:23N 51°54' E 002°55'0 0.0
2017-Jan-19 23:32N 51°54' E 002°55'0 0.1
2017-Jan-19 22:32N 51°54' E 002°55'0 0.2
2017-Jan-19 21:32N 51°54' E 002°55'0 0.1
2017-Jan-19 20:08N 51°54' E 002°55'0 0.0
2017-Jan-19 19:32N 51°54' E 002°55'0 0.1
2017-Jan-19 16:18N 51°54' E 002°55'0 0.0
2017-Jan-19 14:18N 51°54' E 002°55'0 0.0
2017-Jan-19 13:26N 51°54' E 002°55'0 0.0
2017-Jan-19 12:27N 51°54' E 002°55'0 0.1
2017-Jan-19 11:29N 51°54' E 002°55'0 0.2
2017-Jan-19 10:33N 51°54' E 002°55'0 0.2
2017-Jan-19 09:32N 51°54' E 002°55'0 0.1
2017-Jan-19 08:21N 51°54' E 002°55'0 0.0
2017-Jan-19 07:26N 51°54' E 002°55'0 0.0
2017-Jan-19 06:33N 51°54' E 002°55'0 0.0
2017-Jan-19 05:30N 51°54' E 002°55'0 0.2
2017-Jan-19 04:33N 51°54' E 002°55'0 0.2
2017-Jan-19 03:32N 51°54' E 002°55'0 0.0
2017-Jan-19 02:15N 51°54' E 002°55'0 0.0
2017-Jan-19 01:23N 51°54' E 002°55'0 0.0
2017-Jan-19 00:33N 51°54' E 002°55'0 0.0
2017-Jan-18 23:24N 51°54' E 002°55'0 0.1
2017-Jan-18 22:17N 51°54' E 002°55'0 0.2
2017-Jan-18 21:33N 51°54' E 002°55'0 0.0
2017-Jan-18 17:32N 51°54' E 002°55'0 0.1
2017-Jan-18 13:05N 51°54' E 002°55'0 0.0
2017-Jan-18 12:30N 51°54' E 002°55'0 0.0
2017-Jan-18 10:33N 51°54' E 002°55'0 0.2
2017-Jan-18 09:33N 51°54' E 002°55'0 0.0
2017-Jan-18 00:33N 51°54' E 002°55'0 0.1
2017-Jan-17 21:23N 51°54' E 002°55'0 0.2
2017-Jan-17 20:33N 51°54' E 002°55'0 0.0
2017-Jan-17 18:30N 51°54' E 002°55'  
Track history (hours):
 
Tides and Currents Weather Stations Pressure Air Temp Water Temp Dewpoint Dewpoint Depression Visibility Wind Speed Wind Dir Waves Ship Positions

Cape Sakura

Last reported at 2017-Jan-27 17:31 UTC. Time now 2017-Feb-23 18:38 UTC.
Position N 48°57' W 005°35'.
Warning: this ship's position is 27 days out of date.

Length 292 m; draft 11.1 m.

Type: Cargo ship. MMSI: 432786000.

Date/timePositionNaut miles runAvg speedWind from/ knotsBaromVisibWave heightAir tempDewpointWater temp
2017-Jan-27 17:31N 48°57' W 005°35'7510.6
2017-Jan-27 10:26N 49°42' W 004°03'1110.9
2017-Jan-27 09:28N 49°47' W 003°48'910.3
2017-Jan-27 08:33N 49°50' W 003°34'9 9.5
2017-Jan-27 07:34N 49°53' W 003°20'9 8.6
2017-Jan-27 06:28N 49°56' W 003°07'8 8.7
2017-Jan-27 05:34N 49°58' W 002°55'9 9.3
2017-Jan-27 04:34N 50°02' W 002°41'1110.7
2017-Jan-27 03:33N 50°05' W 002°25'1512.5
2017-Jan-27 02:20N 50°10' W 002°03'1113.7
2017-Jan-27 01:33N 50°12' W 001°47'1413.8
2017-Jan-27 00:33N 50°15' W 001°26'1413.1
2017-Jan-26 23:31N 50°17' W 001°05'1111.5
2017-Jan-26 22:33N 50°21' W 000°48'1010.2
2017-Jan-26 21:31N 50°23' W 000°32'9 9.6
2017-Jan-26 20:33N 50°26' W 000°18'9 9.5
2017-Jan-26 19:33N 50°29' W 000°04'10 9.9
2017-Jan-26 18:33N 50°31' E 000°11'1110.8
2017-Jan-26 17:33N 50°35' E 000°27'1211.9
2017-Jan-26 16:33N 50°40' E 000°44'1212.1
2017-Jan-26 15:34N 50°47' E 000°60'1211.6
2017-Jan-26 14:33N 50°55' E 001°12'1110.6
2017-Jan-26 13:34N 51°03' E 001°24'9 9.0
2017-Jan-26 12:34N 51°08' E 001°35'8 8.5
2017-Jan-26 11:34N 51°14' E 001°45'9 9.1
2017-Jan-26 10:33N 51°22' E 001°53'1010.5
2017-Jan-26 09:34N 51°30' E 002°02'1211.7
2017-Jan-26 08:33N 51°39' E 002°14'1212.3
2017-Jan-26 07:33N 51°49' E 002°27'1212.2
2017-Jan-26 06:33N 51°57' E 002°41'1211.8
2017-Jan-26 05:33N 52°03' E 002°58'1211.6
2017-Jan-26 04:33N 52°03' E 003°17'1111.2
2017-Jan-26 03:34N 52°03' E 003°35'7 6.8
2017-Jan-26 02:33N 52°04' E 003°46'7 6.7
2017-Jan-26 01:34N 52°02' E 003°56'7 7.2
2017-Jan-26 00:32N 51°58' E 004°07'0 0.0
2017-Jan-25 23:31N 51°58' E 004°07'0 0.0
2017-Jan-25 22:32N 51°58' E 004°07'0 0.0
2017-Jan-25 21:32N 51°58' E 004°07'0 0.0
2017-Jan-25 20:31N 51°58' E 004°07'0 0.0
2017-Jan-25 19:32N 51°58' E 004°07'0 0.0
2017-Jan-25 18:32N 51°58' E 004°07'0 0.0
2017-Jan-25 17:31N 51°58' E 004°07'0 0.0
2017-Jan-25 16:31N 51°58' E 004°07'0 0.0
2017-Jan-25 15:31N 51°58' E 004°07'0 0.0
2017-Jan-25 14:31N 51°58' E 004°07'0 0.0
2017-Jan-25 13:31N 51°58' E 004°07'0 0.0
2017-Jan-25 12:31N 51°58' E 004°07'0 0.0
2017-Jan-25 11:32N 51°58' E 004°07'0 0.0
2017-Jan-25 10:32N 51°58' E 004°07'0 0.0
2017-Jan-25 09:31N 51°58' E 004°07'0 0.0
2017-Jan-25 08:31N 51°58' E 004°07'0 0.0
2017-Jan-25 07:31N 51°58' E 004°07'0 0.0
2017-Jan-25 06:31N 51°58' E 004°07'0 0.0
2017-Jan-25 05:31N 51°58' E 004°07'0 0.0
2017-Jan-25 04:31N 51°58' E 004°07'0 0.0
2017-Jan-25 03:31N 51°58' E 004°07'0 0.0
2017-Jan-25 02:31N 51°58' E 004°07'0 0.0
2017-Jan-25 01:31N 51°58' E 004°07'0 0.0
2017-Jan-25 00:32N 51°58' E 004°07'0 0.0
2017-Jan-24 23:32N 51°58' E 004°07'0 0.0
2017-Jan-24 22:32N 51°58' E 004°07'0 0.0
2017-Jan-24 21:32N 51°58' E 004°07'0 0.0
2017-Jan-24 20:32N 51°58' E 004°07'0 0.0
2017-Jan-24 19:31N 51°58' E 004°07'0 0.0
2017-Jan-24 18:31N 51°58' E 004°07'0 0.0
2017-Jan-24 17:31N 51°58' E 004°07'0 0.0
2017-Jan-24 16:32N 51°58' E 004°07'0 0.0
2017-Jan-24 15:32N 51°58' E 004°07'0 0.0
2017-Jan-24 14:31N 51°58' E 004°07'0 0.0
2017-Jan-24 13:32N 51°58' E 004°07'0 0.0
2017-Jan-24 12:31N 51°58' E 004°07'0 0.0
2017-Jan-24 11:32N 51°58' E 004°07'0 0.0
2017-Jan-24 10:31N 51°58' E 004°07'0 0.0
2017-Jan-24 09:32N 51°58' E 004°07'0 0.0
2017-Jan-24 08:31N 51°58' E 004°07'0 0.0
2017-Jan-24 07:31N 51°58' E 004°07'0 0.0
2017-Jan-24 06:31N 51°58' E 004°07'0 0.0
2017-Jan-24 05:31N 51°58' E 004°07'0 0.0
2017-Jan-24 04:31N 51°58' E 004°07'0 0.0
2017-Jan-24 03:31N 51°58' E 004°07'0 0.0
2017-Jan-24 02:31N 51°58' E 004°07'0 0.0
2017-Jan-24 01:31N 51°58' E 004°07'0 0.0
2017-Jan-24 00:32N 51°58' E 004°07'0 0.0
2017-Jan-23 23:31N 51°58' E 004°07'0 0.0
2017-Jan-23 22:31N 51°58' E 004°07'0 0.0
2017-Jan-23 21:32N 51°58' E 004°07'0 0.0
2017-Jan-23 20:32N 51°58' E 004°07'0 0.0
2017-Jan-23 19:32N 51°58' E 004°07'0 0.0
2017-Jan-23 18:32N 51°58' E 004°07'0 0.0
2017-Jan-23 17:31N 51°58' E 004°07'0 0.0
2017-Jan-23 16:32N 51°58' E 004°07'0 0.0
2017-Jan-23 15:31N 51°58' E 004°07'0 0.0
2017-Jan-23 14:31N 51°58' E 004°07'0 0.0
2017-Jan-23 13:31N 51°58' E 004°07'0 0.0
2017-Jan-23 12:31N 51°58' E 004°07'0 0.0
2017-Jan-23 11:31N 51°58' E 004°07'0 0.0
2017-Jan-23 10:31N 51°58' E 004°07'0 0.0
2017-Jan-23 09:31N 51°58' E 004°07'0 0.0
2017-Jan-23 08:31N 51°58' E 004°07'0 0.0
2017-Jan-23 07:31N 51°58' E 004°07'0 0.0
2017-Jan-23 06:31N 51°58' E 004°07'0 0.0
2017-Jan-23 05:31N 51°58' E 004°07'0 0.0
2017-Jan-23 04:31N 51°58' E 004°07'0 0.0
2017-Jan-23 03:31N 51°58' E 004°07'0 0.0
2017-Jan-23 02:31N 51°58' E 004°07'0 0.0
2017-Jan-23 01:31N 51°58' E 004°07'0 0.0
2017-Jan-23 00:31N 51°58' E 004°07'0 0.0
2017-Jan-22 23:31N 51°58' E 004°07'0 0.0
2017-Jan-22 22:32N 51°58' E 004°07'0 0.0
2017-Jan-22 21:31N 51°58' E 004°07'0 0.0
2017-Jan-22 20:32N 51°58' E 004°07'0 0.0
2017-Jan-22 19:31N 51°58' E 004°07'0 0.0
2017-Jan-22 18:31N 51°58' E 004°07'0 0.0
2017-Jan-22 17:31N 51°58' E 004°07'0 0.0
2017-Jan-22 16:32N 51°58' E 004°07'0 0.0
2017-Jan-22 15:31N 51°58' E 004°07'0 0.0
2017-Jan-22 14:31N 51°58' E 004°07'0 0.0
2017-Jan-22 13:31N 51°58' E 004°07'0 0.0
2017-Jan-22 12:31N 51°58' E 004°07'0 0.0
2017-Jan-22 11:31N 51°58' E 004°07'0 0.0
2017-Jan-22 10:32N 51°58' E 004°07'0 0.0
2017-Jan-22 09:32N 51°58' E 004°07'0 0.0
2017-Jan-22 08:33N 51°58' E 004°07'1 1.4
2017-Jan-22 07:33N 51°59' E 004°05'7 7.1
2017-Jan-22 06:33N 52°01' E 003°54'9 9.5
2017-Jan-22 05:33N 52°01' E 003°39'8 8.3
2017-Jan-22 04:32N 51°59' E 003°25'8 8.0
2017-Jan-22 03:32N 51°58' E 003°12'8 7.7
2017-Jan-22 02:33N 51°58' E 003°00'5 5.0
2017-Jan-22 01:31N 51°54' E 002°55'0 0.0
2017-Jan-21 13:09N 51°54' E 002°55'0 0.1
2017-Jan-21 11:32N 51°54' E 002°55'0 0.0
2017-Jan-21 03:29N 51°54' E 002°55'0 0.0
2017-Jan-21 02:33N 51°54' E 002°55'0 0.0
2017-Jan-21 01:30N 51°54' E 002°55'0 0.1
2017-Jan-21 00:23N 51°54' E 002°55'0 0.1
2017-Jan-20 23:27N 51°54' E 002°55'0 0.1
2017-Jan-20 22:33N 51°54' E 002°55'0 0.1
2017-Jan-20 21:29N 51°54' E 002°55'0 0.1
2017-Jan-20 20:29N 51°54' E 002°55'0 0.1
2017-Jan-20 19:33N 51°54' E 002°55'0 0.3
2017-Jan-20 18:32N 51°54' E 002°55'0 0.1
2017-Jan-20 15:33N 51°54' E 002°55'0 0.0
2017-Jan-20 14:30N 51°54' E 002°55'0 0.0
2017-Jan-20 13:33N 51°54' E 002°55'0 0.0
2017-Jan-20 12:33N 51°54' E 002°55'0 0.1
2017-Jan-20 11:33N 51°54' E 002°55'0 0.2
2017-Jan-20 10:32N 51°54' E 002°55'0 0.1
2017-Jan-20 09:32N 51°54' E 002°55'0 0.1
2017-Jan-20 08:32N 51°54' E 002°55'0 0.0
2017-Jan-20 07:26N 51°54' E 002°55'0 0.0
2017-Jan-20 06:23N 51°54' E 002°55'0 0.1
2017-Jan-20 03:27N 51°54' E 002°55'0 0.0
2017-Jan-20 02:21N 51°54' E 002°55'0 0.0
2017-Jan-20 01:27N 51°54' E 002°55'0 0.0
2017-Jan-20 00:23N 51°54' E 002°55'0 0.0
2017-Jan-19 23:32N 51°54' E 002°55'0 0.1
2017-Jan-19 22:32N 51°54' E 002°55'0 0.2
2017-Jan-19 21:32N 51°54' E 002°55'0 0.1
2017-Jan-19 20:08N 51°54' E 002°55'0 0.0
2017-Jan-19 19:32N 51°54' E 002°55'0 0.1
2017-Jan-19 16:18N 51°54' E 002°55'0 0.0
2017-Jan-19 14:18N 51°54' E 002°55'0 0.0
2017-Jan-19 13:26N 51°54' E 002°55'0 0.0
2017-Jan-19 12:27N 51°54' E 002°55'0 0.1
2017-Jan-19 11:29N 51°54' E 002°55'0 0.2
2017-Jan-19 10:33N 51°54' E 002°55'0 0.2
2017-Jan-19 09:32N 51°54' E 002°55'0 0.1
2017-Jan-19 08:21N 51°54' E 002°55'0 0.0
2017-Jan-19 07:26N 51°54' E 002°55'0 0.0
2017-Jan-19 06:33N 51°54' E 002°55'0 0.0
2017-Jan-19 05:30N 51°54' E 002°55'0 0.2
2017-Jan-19 04:33N 51°54' E 002°55'0 0.2
2017-Jan-19 03:32N 51°54' E 002°55'0 0.0
2017-Jan-19 02:15N 51°54' E 002°55'0 0.0
2017-Jan-19 01:23N 51°54' E 002°55'0 0.0
2017-Jan-19 00:33N 51°54' E 002°55'0 0.0
2017-Jan-18 23:24N 51°54' E 002°55'0 0.1
2017-Jan-18 22:17N 51°54' E 002°55'0 0.2
2017-Jan-18 21:33N 51°54' E 002°55'0 0.0
2017-Jan-18 17:32N 51°54' E 002°55'0 0.1
2017-Jan-18 13:05N 51°54' E 002°55'0 0.0
2017-Jan-18 12:30N 51°54' E 002°55'0 0.0
2017-Jan-18 10:33N 51°54' E 002°55'0 0.2
2017-Jan-18 09:33N 51°54' E 002°55'0 0.0
2017-Jan-18 00:33N 51°54' E 002°55'0 0.1
2017-Jan-17 21:23N 51°54' E 002°55'0 0.2
2017-Jan-17 20:33N 51°54' E 002°55'0 0.0
2017-Jan-17 18:30N 51°54' E 002°55'  

Dump ship's entire track history